{"data":{"norad_id":46687,"epoch":"2026-05-25T02:01:18.390432Z","epoch_age_seconds":61547,"freshness":"FRESH","line1":"1 46687U 20073T   26145.08424063  .00125012  00000+0  71189-3 0  9997","line2":"2 46687  53.0376 168.8868 0004429  33.4808 326.6491 15.78087538309901","mean_motion":15.78087538,"eccentricity":0.0004429,"inclination_deg":53.0376,"raan_deg":168.8868,"arg_perigee_deg":33.4808,"mean_anomaly_deg":326.6491,"bstar":0.00071189,"rev_number":30990,"period_min":91.249690864741,"perigee_km":332.88593221789,"apogee_km":338.83319037189,"semimajor_km":6713.9965612949,"source":"CELESTRAK","updated_at":"2026-05-25T13:38:16.515144Z"}}